GFSNIL_sfc_thetae_000.txt.gz
Theta_e
326 326 326 327 328 328 328 330 331 330 330 330 329 329 329 329 328 326 321 319 318 318
321 324 325 327 328 328 329 329 330 331 330 330 330 329 329 328 326 326 324 321 319 319
313 316 319 321 323 325 326 327 328 329 329 329 329 329 328 328 327 326 325 322 321 320
313 314 315 315 317 319 321 322 323 324 325 326 327 327 327 327 326 325 325 324 322 322
312 312 312 313 314 316 316 318 319 321 322 323 324 325 325 325 325 324 324 323 323 321
312 312 312 312 312 313 313 315 316 317 318 320 322 323 324 324 324 325 325 324 322 323
312 312 312 312 312 312 312 312 313 315 316 317 319 321 323 323 324 324 324 324 324 322
311 311 311 311 312 312 312 312 313 312 314 316 317 319 321 323 323 323 323 323 323 322
309 310 310 310 310 311 311 312 313 312 312 313 315 313 312 315 321 322 321 321 322 322
307 307 307 308 309 309 310 311 311 311 312 312 313 311 311 310 317 319 320 320 319 320
303 303 304 305 305 306 307 308 309 309 310 311 312 308 309 310 317 318 319 319 319 319
300 300 301 302 302 304 304 305 306 308 308 308 310 307 307 309 316 315 316 317 318 318
299 299 299 300 301 302 303 303 305 305 307 307 308 307 306 307 313 313 313 315 316 310
296 295 296 297 299 300 300 301 302 303 305 306 306 308 306 307 310 311 312 312 312 313

GFSNIL_sfc_thetae_003.txt.gz
Theta_e
321 324 325 326 327 327 328 330 332 331 331 331 332 332 332 332 331 331 330 328 325 322
314 315 317 320 323 325 327 328 330 331 331 332 331 331 331 329 329 330 329 327 325 322
314 314 314 315 315 317 319 321 323 325 327 329 330 330 330 329 329 328 328 327 325 323
314 314 314 313 314 314 315 315 316 318 320 322 324 326 327 327 328 327 326 327 325 324
314 314 313 313 314 314 313 314 314 314 315 316 318 321 322 323 324 324 325 325 325 323
313 313 313 313 314 314 314 314 314 314 313 313 315 316 319 321 322 323 324 324 324 323
311 311 311 312 313 313 313 313 313 314 314 313 313 314 315 317 319 321 322 323 323 323
310 310 310 310 311 311 312 312 313 313 313 314 314 313 314 316 317 318 319 321 322 322
307 307 307 307 307 308 308 309 310 311 312 312 312 310 309 310 313 314 316 316 319 320
303 303 303 305 305 305 305 306 306 308 308 309 311 309 309 308 311 311 313 314 316 316
301 300 301 302 302 302 303 304 304 305 306 307 309 307 307 306 309 311 312 313 314 315
296 297 297 297 297 298 300 301 302 303 304 305 306 306 305 306 308 308 309 312 313 313
295 295 295 295 296 297 297 299 301 301 303 303 304 304 304 304 305 303 305 307 309 308
293 293 293 293 295 294 294 296 298 298 299 299 299 301 303 303 302 302 302 303 303 307

GFSNIL_sfc_thetae_006.txt.gz
Theta_e
308 309 310 312 313 316 318 321 323 324 324 325 326 327 328 329 329 329 328 326 324 323
308 307 307 308 308 310 311 313 314 316 320 322 326 327 327 326 327 327 327 326 326 326
308 308 308 308 307 307 308 309 309 310 311 313 316 320 323 325 325 325 326 326 325 326
307 308 308 308 309 309 309 309 309 308 308 309 310 312 314 316 319 322 323 324 324 324
307 307 306 307 308 309 309 310 310 310 310 310 309 310 310 311 314 315 316 319 321 321
306 305 305 306 307 308 308 308 308 309 309 310 310 310 310 310 311 312 314 315 316 318
304 304 303 304 305 305 305 305 306 306 307 308 309 310 310 309 309 310 311 313 314 316
303 302 302 301 302 303 303 303 304 304 304 305 306 307 308 308 308 307 307 309 310 312
300 300 299 299 300 300 300 300 301 301 302 302 304 306 307 307 306 306 306 306 308 309
296 295 296 297 296 296 296 296 297 298 300 300 301 305 306 306 304 304 304 305 306 307
293 293 293 293 293 293 293 293 294 295 297 298 300 304 304 304 301 300 301 302 302 305
291 290 290 290 290 290 291 291 291 293 294 296 297 300 301 299 297 298 298 301 301 302
288 288 287 288 287 288 289 289 290 290 292 295 293 297 299 297 296 294 296 296 297 300
286 286 286 286 287 286 286 288 287 288 289 290 291 291 297 297 294 293 292 290 292 295

GFSNIL_sfc_thetae_009.txt.gz
Theta_e
305 306 306 305 305 306 307 308 309 309 311 313 318 324 327 327 327 327 326 326 326 325
305 305 305 305 305 306 307 309 308 308 308 309 310 311 314 319 322 324 325 325 326 325
305 305 305 305 305 306 308 308 308 308 308 308 308 309 309 309 311 313 316 320 320 321
304 305 305 305 305 306 307 307 307 307 307 308 308 309 308 308 309 309 310 312 314 315
304 303 303 303 303 304 304 305 305 305 305 305 306 306 307 307 308 307 307 309 311 312
302 301 300 300 301 301 301 301 302 303 302 302 303 303 305 305 306 305 306 307 307 308
300 299 298 299 299 299 299 299 300 299 299 300 302 302 303 303 302 303 305 306 306 306
297 295 295 296 296 297 297 297 297 295 297 297 298 301 300 301 303 304 303 304 303 304
293 293 293 293 293 293 293 293 293 293 294 293 298 300 303 304 300 299 296 296 299 301
291 290 290 290 290 290 290 290 289 291 291 292 292 299 302 303 295 293 294 296 296 298
288 288 288 288 287 287 287 287 288 287 288 289 290 298 301 299 292 292 293 294 294 296
285 285 285 285 284 285 285 285 285 286 287 287 288 296 295 293 291 290 291 293 294 291
284 284 283 283 283 284 284 284 285 284 285 289 286 292 293 291 290 288 289 291 291 293
283 282 283 282 282 283 283 283 282 283 284 284 286 285 290 291 288 288 289 289 289 289

GFSNIL_sfc_thetae_012.txt.gz
Theta_e
304 304 304 303 303 303 304 305 305 306 307 307 308 308 308 309 312 316 320 320 321 321
303 303 303 302 303 303 304 306 306 305 305 306 306 307 307 307 307 308 310 311 313 316
302 302 302 302 301 301 303 303 303 303 304 304 304 304 305 305 306 306 307 308 308 309
301 301 300 299 300 299 300 300 300 301 301 301 301 302 302 302 303 304 304 304 305 306
300 298 297 297 297 298 297 298 298 298 298 297 298 300 300 299 301 299 300 301 303 304
296 295 293 294 295 295 295 294 295 294 294 294 297 295 297 299 297 299 301 302 303 303
293 291 291 292 292 292 293 292 292 291 291 294 292 293 297 295 297 300 300 301 298 297
291 291 290 290 290 290 290 289 290 288 289 292 289 292 292 293 295 297 293 293 293 295
288 287 287 287 287 287 287 287 287 286 287 287 288 295 296 296 294 291 290 290 290 293
285 285 285 285 285 285 284 285 284 285 285 284 286 292 295 297 290 287 287 289 288 289
284 283 283 283 283 282 283 282 283 283 284 284 285 290 293 293 287 285 286 288 288 289
282 282 282 281 281 282 282 282 282 283 282 282 283 290 290 289 285 285 286 287 288 290
282 281 281 280 281 281 281 282 282 282 282 284 282 287 289 288 286 284 285 287 289 291
281 280 280 281 281 281 281 281 280 281 281 282 283 284 289 289 286 285 286 285 285 286

GFSNIL_sfc_thetae_015.txt.gz
Theta_e
302 301 301 300 300 300 301 301 301 302 303 303 304 304 303 304 305 305 305 305 307 308
300 299 299 299 299 299 299 301 300 300 300 301 301 300 301 301 301 302 303 304 304 304
299 298 298 297 296 297 297 297 297 298 298 298 297 297 298 299 299 300 301 300 300 301
296 296 295 294 294 294 294 294 294 294 293 292 293 295 293 293 296 297 296 298 299 300
294 292 291 291 291 292 291 292 291 291 289 289 291 292 289 290 294 291 294 296 298 300
290 290 289 289 289 289 289 288 288 288 287 287 289 289 287 291 289 290 292 297 296 292
288 288 288 287 287 287 287 286 286 286 286 286 287 286 287 289 288 290 292 291 291 290
287 286 285 285 285 285 285 285 285 285 284 285 285 286 287 288 288 289 287 286 286 288
284 284 283 283 283 283 283 283 283 283 283 283 285 289 290 290 288 287 284 283 285 288
283 282 282 282 282 281 281 281 281 281 282 282 282 288 290 291 287 285 284 284 285 286
282 281 281 281 280 280 281 280 280 281 281 281 282 288 289 290 285 285 285 285 285 285
280 280 280 279 279 280 280 280 280 281 281 280 281 287 288 287 285 284 284 285 286 286
280 280 279 279 279 280 280 280 281 280 281 283 281 285 288 287 285 284 284 286 286 289
279 279 279 278 279 279 279 279 279 279 280 280 282 283 287 288 285 284 284 284 283 284

GFSNIL_sfc_thetae_018.txt.gz
Theta_e
298 298 297 296 296 296 296 297 297 297 298 298 298 296 297 298 299 299 299 299 301 301
296 295 295 294 294 294 294 296 294 295 294 294 292 293 294 293 292 294 297 297 296 298
294 293 292 292 291 291 292 292 291 290 290 288 289 289 292 289 289 292 292 291 295 296
291 290 289 289 289 288 289 289 288 288 287 286 287 287 289 286 287 288 288 290 291 296
289 288 287 286 287 287 286 286 286 286 285 285 285 286 285 284 287 287 287 288 290 289
286 285 284 284 285 285 285 284 284 284 284 284 284 284 284 284 286 286 287 288 287 285
284 283 283 283 283 284 284 282 283 283 283 283 283 283 284 285 286 286 288 287 285 284
284 283 282 282 282 282 282 282 282 282 282 282 283 284 285 286 286 286 285 284 284 285
282 282 282 281 281 281 281 281 281 281 281 281 283 287 289 288 285 285 284 283 284 285
281 281 281 281 280 280 279 279 279 280 280 280 281 287 289 289 285 284 284 284 284 284
280 280 280 279 278 278 279 279 279 279 280 280 281 286 288 288 284 284 284 284 284 284
279 279 279 278 278 278 278 278 279 280 279 279 279 285 287 286 283 283 283 284 285 286
279 278 277 277 277 278 278 279 279 279 279 281 279 284 287 286 283 282 282 283 285 286
278 277 277 277 277 278 278 278 277 277 278 279 280 282 286 287 284 282 283 283 282 282

GFSNIL_sfc_thetae_021.txt.gz
Theta_e
299 298 296 295 294 294 294 294 294 294 293 292 291 292 293 295 294 294 296 299 294 295
295 294 293 292 293 292 292 291 291 291 291 290 290 290 291 292 289 290 294 292 292 294
292 291 291 291 290 290 290 290 289 289 289 288 289 289 289 289 288 289 290 290 291 293
290 289 289 288 288 288 288 288 287 287 287 287 287 287 287 287 287 287 288 290 290 292
288 288 287 287 287 287 286 287 286 286 286 286 286 286 285 285 286 287 287 288 290 289
286 286 285 285 286 286 285 285 285 285 284 284 285 285 285 286 287 287 287 288 288 286
285 285 285 285 285 285 285 284 284 284 284 284 284 284 285 286 287 287 287 287 287 286
285 285 284 284 284 284 284 284 284 283 283 283 284 284 286 287 287 286 286 286 286 286
284 284 284 283 283 283 283 283 283 282 282 282 283 286 288 288 287 286 285 285 286 286
283 282 283 282 282 282 282 282 281 281 282 281 282 286 287 288 286 285 285 285 285 285
282 282 282 281 281 281 281 281 281 281 281 281 282 285 287 287 285 285 285 285 285 285
281 281 281 280 280 281 281 281 281 281 281 280 281 285 286 286 285 284 284 285 285 286
281 280 280 280 280 281 281 280 281 280 280 281 280 284 286 286 284 283 283 284 285 286
280 279 280 280 280 280 280 280 279 279 280 280 282 283 286 286 284 283 283 284 283 284

GFSNIL_sfc_thetae_024.txt.gz
Theta_e
302 301 299 297 297 295 295 294 294 294 294 293 293 293 293 294 295 294 293 296 294 293
298 297 296 295 295 293 293 292 293 293 292 292 292 292 292 292 291 292 292 292 293 292
295 294 293 293 292 292 292 292 291 291 291 291 291 291 291 291 291 290 291 291 291 292
293 292 292 291 291 291 291 290 290 290 289 289 289 289 289 289 289 289 290 291 290 290
291 291 290 289 290 290 289 290 289 289 288 288 288 288 288 287 288 288 288 289 289 289
290 289 288 288 289 289 289 288 288 288 287 287 287 287 287 287 288 288 289 289 288 288
288 288 289 289 288 288 288 288 287 287 287 287 287 287 287 287 288 288 288 288 288 288
288 288 288 288 288 287 287 287 287 286 286 286 286 286 286 287 287 287 287 288 287 287
287 287 287 287 287 287 287 287 286 286 285 285 285 287 287 288 287 287 286 286 286 287
286 286 286 286 286 286 286 286 286 285 285 284 285 286 287 288 286 286 286 286 285 285
285 285 285 285 285 285 285 285 285 284 284 284 284 286 286 287 286 286 286 286 286 285
285 284 284 284 284 285 285 284 284 284 284 283 283 285 286 286 285 285 285 285 285 286
284 284 284 284 284 284 284 284 284 283 283 284 283 285 286 286 285 283 284 285 285 286
284 284 284 284 284 284 283 283 283 282 283 283 284 285 286 286 284 284 284 285 284 285

GFSNIL_sfc_thetae_027.txt.gz
Theta_e
303 302 300 298 297 296 295 294 294 294 294 293 293 293 294 294 295 295 294 293 293 293
299 298 297 296 295 294 294 293 293 293 292 292 292 292 292 292 291 292 292 292 292 292
297 295 295 294 293 292 292 292 292 291 291 291 291 291 291 290 291 290 290 291 291 291
295 294 293 292 291 291 291 291 290 290 290 290 289 289 289 289 289 288 289 290 290 290
293 293 291 290 290 290 290 290 290 289 289 289 288 288 288 287 288 287 288 289 289 288
292 291 290 290 290 290 289 289 289 289 288 288 288 287 287 287 286 287 288 288 288 288
290 290 289 289 289 289 289 288 288 288 288 287 287 287 287 286 286 287 287 288 288 288
289 289 289 289 288 288 288 288 288 287 287 287 287 287 287 286 286 286 286 287 287 287
288 288 288 288 287 288 288 288 288 287 287 286 286 289 289 287 286 286 286 285 286 287
287 287 287 287 287 287 287 287 287 287 286 285 286 288 288 288 285 285 285 285 285 285
286 286 286 286 286 286 286 286 286 286 285 285 285 287 287 287 286 285 285 285 285 285
286 285 285 285 285 286 285 285 285 285 285 284 284 287 287 286 285 284 284 285 285 285
285 285 284 285 285 285 285 285 285 284 284 285 283 287 287 287 285 283 283 284 285 287
285 285 285 285 285 285 284 284 283 283 284 284 285 285 287 287 284 283 283 283 283 284

GFSNIL_sfc_thetae_030.txt.gz
Theta_e
296 294 293 291 290 289 289 289 289 289 288 288 289 288 288 288 289 288 287 285 286 287
292 291 290 289 289 289 288 290 288 287 287 287 287 287 287 287 285 285 285 285 285 286
290 289 289 288 287 287 287 287 287 286 286 286 286 286 285 285 285 285 285 286 285 286
289 288 287 286 286 286 286 286 286 286 286 285 285 285 284 284 285 284 283 284 285 286
289 287 286 285 286 286 285 285 285 285 285 285 285 284 283 283 283 282 283 284 284 285
287 286 285 285 286 286 285 284 285 285 284 284 285 284 283 284 282 283 284 284 284 284
286 285 285 285 285 285 285 284 284 284 284 285 284 284 284 283 283 283 284 284 284 284
286 285 285 285 285 285 285 285 285 284 284 284 284 285 284 285 283 283 283 283 284 285
286 285 285 284 284 284 284 283 283 283 283 282 285 289 289 288 284 283 283 282 283 284
285 285 284 284 283 282 282 282 281 281 281 281 281 288 289 289 284 283 282 282 282 283
284 283 283 282 281 281 281 280 280 280 281 280 282 288 288 288 284 283 283 283 283 282
283 281 281 280 280 280 280 280 279 281 280 279 280 287 288 287 283 283 282 283 283 283
282 281 280 280 280 280 280 281 282 281 280 282 280 286 288 287 283 282 282 282 283 286
281 281 280 280 280 279 279 280 278 279 279 279 281 282 287 287 283 282 282 281 281 282

GFSNIL_sfc_thetae_033.txt.gz
Theta_e
292 291 289 289 288 287 287 286 286 286 286 286 286 286 285 286 286 285 284 283 283 284
289 288 287 287 287 286 286 288 285 285 285 285 285 285 284 284 283 283 283 283 283 283
287 287 286 286 285 285 285 285 285 285 284 284 284 284 283 283 283 282 282 284 282 283
286 286 285 285 284 284 284 284 284 284 284 283 283 283 282 282 283 282 281 282 283 283
286 285 284 284 284 285 284 284 284 284 284 283 284 283 282 281 281 281 281 282 282 282
285 284 283 283 284 284 284 283 283 284 283 284 284 283 282 282 281 281 281 282 282 282
284 284 283 284 284 284 284 283 283 284 284 284 283 283 283 282 282 281 282 283 283 282
284 284 284 284 284 283 283 284 284 283 282 282 283 284 284 284 283 281 281 282 283 283
285 284 283 283 283 282 282 282 282 281 281 280 283 288 289 288 283 282 281 281 282 283
284 284 283 283 282 281 280 280 279 280 280 279 279 288 289 289 284 282 281 281 281 282
283 282 282 281 280 279 279 279 279 279 279 279 281 287 288 288 283 281 281 281 281 281
282 281 280 279 278 279 278 278 278 279 278 277 278 286 287 286 282 282 281 282 282 283
281 280 279 278 278 279 278 279 279 279 278 281 278 284 286 286 282 281 281 282 282 285
280 279 279 278 278 278 278 278 276 276 276 277 279 280 286 286 283 281 282 281 280 281

GFSNIL_sfc_thetae_036.txt.gz
Theta_e
290 289 288 287 287 286 286 285 285 284 284 284 284 284 283 284 284 283 282 281 281 282
288 287 286 286 285 285 285 287 284 283 283 283 283 283 283 283 282 281 281 281 281 281
286 285 285 284 284 284 284 284 283 283 283 283 283 283 282 281 282 281 281 283 281 281
285 284 284 284 283 283 283 283 283 283 283 282 282 282 281 281 281 280 280 281 281 281
285 284 283 283 283 283 282 282 282 282 282 282 283 282 281 280 280 280 280 280 281 281
283 283 282 283 283 283 282 282 282 283 282 282 283 282 281 280 280 280 280 280 280 281
283 283 283 283 283 283 282 282 282 282 282 282 282 281 281 282 281 281 281 281 281 281
283 283 283 283 282 282 282 282 282 281 281 280 281 283 284 283 282 280 280 280 281 282
284 283 283 282 282 282 281 280 280 279 279 279 282 287 289 287 283 281 280 280 281 282
283 283 282 282 281 280 279 279 278 278 278 278 278 287 288 289 284 280 280 279 280 281
282 281 281 280 279 278 278 278 277 278 278 277 279 286 287 288 282 281 280 280 280 280
281 280 280 279 278 278 277 277 277 277 277 276 277 285 286 285 281 281 280 281 281 283
280 279 279 278 278 278 277 277 278 277 276 280 276 283 286 285 282 280 280 282 282 284
280 279 279 278 277 277 276 277 275 275 275 276 277 278 285 286 283 281 282 280 280 280

GFSNIL_sfc_thetae_039.txt.gz
Theta_e
290 290 288 287 286 285 285 284 284 283 283 283 283 283 282 282 282 282 281 279 279 281
287 287 286 284 284 284 284 286 283 283 282 282 282 282 282 282 281 280 280 280 280 280
285 284 284 284 283 283 283 283 283 282 282 282 282 282 281 281 281 280 280 281 280 280
284 283 283 283 283 282 282 282 282 282 282 281 281 281 280 280 280 279 279 280 280 280
283 283 282 282 282 282 282 282 282 282 281 281 281 281 280 279 279 279 279 280 279 280
282 282 282 282 282 282 282 281 281 281 281 281 281 280 280 280 280 280 280 280 279 280
282 282 282 282 282 282 281 281 281 281 280 280 280 280 280 281 281 280 280 280 280 280
282 283 282 282 281 281 281 280 280 280 279 279 280 282 283 283 281 280 279 279 280 281
283 283 282 281 281 280 280 279 279 278 278 278 281 286 288 287 282 280 279 279 280 280
283 283 281 280 280 279 278 277 277 278 277 277 277 286 288 288 282 280 279 279 280 280
284 282 280 279 278 277 277 277 277 277 277 276 278 286 287 287 281 279 279 279 279 279
282 280 279 278 277 277 277 277 276 277 276 275 276 284 286 285 281 280 279 280 281 282
280 278 278 277 277 277 277 277 277 276 276 278 276 282 286 285 281 280 280 282 281 284
278 278 278 277 277 276 276 276 274 275 274 275 277 278 285 286 282 281 281 280 280 280

GFSNIL_sfc_thetae_042.txt.gz
Theta_e
291 290 288 286 285 284 284 283 283 283 283 282 282 282 282 282 281 281 280 279 279 280
288 287 285 284 284 284 283 284 282 282 282 282 282 281 281 281 280 279 279 279 279 279
285 284 284 284 282 282 282 282 282 282 282 281 281 281 280 280 280 279 279 280 279 279
283 283 283 282 282 282 282 282 282 282 281 281 280 280 279 279 280 279 279 279 279 279
283 282 282 281 281 282 281 281 281 281 281 280 280 279 279 278 279 279 279 279 279 279
282 281 281 281 281 281 281 281 281 281 280 280 280 279 279 279 279 279 279 279 279 279
281 281 281 281 281 281 281 281 280 279 279 279 279 279 279 280 280 280 280 279 279 279
282 282 281 281 281 281 281 280 280 279 278 278 279 281 282 282 281 279 279 279 279 280
282 281 281 280 280 280 280 279 278 278 277 277 280 285 288 287 281 280 279 279 279 279
282 281 281 282 281 280 278 277 277 277 276 276 276 286 288 288 282 280 278 278 279 280
282 281 281 280 279 278 277 276 276 276 276 275 277 286 287 287 281 279 278 278 278 278
281 281 280 278 277 276 276 276 275 276 275 274 276 284 286 285 280 279 279 280 279 280
282 280 278 277 276 276 276 277 277 276 275 278 275 282 285 285 281 279 280 280 280 284
280 278 277 276 276 276 275 276 274 275 275 275 277 278 285 286 282 280 281 279 280 281

GFSNIL_sfc_thetae_045.txt.gz
Theta_e
295 293 291 289 289 289 288 288 288 288 288 288 288 287 288 288 288 287 287 285 285 286
292 290 289 289 289 288 288 287 287 288 287 287 287 287 287 287 286 286 286 286 285 285
288 289 288 288 287 287 287 287 287 287 287 286 286 286 285 285 285 285 286 286 285 285
287 287 287 287 287 286 287 287 286 286 286 285 285 285 284 284 285 284 285 285 285 284
286 286 286 285 286 286 286 286 286 285 285 284 284 284 283 283 284 284 284 284 284 284
285 285 285 285 285 286 285 285 285 284 284 283 283 283 283 284 285 285 285 284 283 283
285 285 285 285 285 285 285 284 284 283 283 283 282 283 284 285 286 285 285 284 284 284
284 284 284 284 284 284 284 283 283 283 282 282 283 283 286 287 286 285 284 284 284 284
284 284 284 283 283 283 283 282 282 281 281 281 282 285 288 288 286 285 284 283 284 284
284 283 283 283 283 282 282 282 281 281 281 280 280 285 288 288 286 284 284 283 283 283
283 283 283 283 282 281 281 281 280 280 280 280 280 285 286 287 285 284 284 283 283 282
283 282 282 281 281 281 280 280 280 280 279 279 281 284 286 286 284 283 283 283 283 283
283 282 281 281 280 280 280 280 280 280 280 280 280 283 285 285 284 282 283 284 283 285
282 281 280 280 280 279 279 279 278 279 280 280 281 282 284 285 284 283 283 282 282 283

GFSNIL_sfc_thetae_048.txt.gz
Theta_e
301 298 295 293 291 292 293 294 294 293 293 293 293 293 293 293 293 292 292 289 290 289
298 294 291 290 291 291 292 292 293 293 292 292 292 291 291 292 291 291 291 290 290 289
295 292 292 291 291 293 292 292 292 292 292 291 291 290 290 290 290 289 290 290 289 289
293 291 291 291 293 293 292 292 292 291 291 290 289 289 289 289 289 288 289 289 288 288
290 291 292 292 292 292 291 291 291 290 289 289 288 288 288 288 288 288 288 288 288 287
290 292 292 291 291 291 291 290 290 289 288 287 287 287 287 287 288 289 288 288 287 287
291 291 291 291 290 290 290 289 288 288 287 287 286 286 287 288 289 289 288 288 287 287
291 290 290 290 289 289 289 288 288 287 286 286 287 286 288 289 289 288 288 288 287 287
289 289 289 289 288 288 288 287 287 286 286 286 285 285 288 288 288 288 287 286 286 286
288 288 288 288 288 287 287 287 286 285 285 285 285 285 287 288 287 287 286 286 285 285
287 287 287 287 286 285 286 286 286 285 285 285 284 285 286 287 287 286 286 286 286 285
287 286 287 285 284 285 286 285 285 285 284 284 285 284 286 286 286 285 285 286 286 286
287 287 285 284 285 285 285 285 285 284 284 283 284 284 285 286 285 284 284 285 286 286
286 284 284 285 285 285 285 284 284 284 284 284 284 284 285 285 285 284 284 284 284 285

GFSNIL_sfc_thetae_051.txt.gz
Theta_e
311 307 301 297 295 293 294 293 296 295 295 295 294 294 294 294 294 294 293 291 291 290
307 301 298 294 293 293 294 294 295 295 294 293 293 293 293 292 291 291 291 291 291 290
301 296 294 292 291 292 292 293 293 293 293 292 292 291 291 291 290 289 291 290 290 290
295 293 293 292 292 292 293 293 293 292 292 291 291 290 290 289 289 289 289 290 289 289
293 292 292 292 292 294 292 293 292 292 291 290 289 289 288 288 289 288 288 289 288 288
293 292 292 291 292 292 292 291 291 290 289 289 288 288 288 288 288 289 289 289 288 287
292 291 291 291 292 292 291 290 290 289 289 288 287 287 288 289 289 289 289 289 288 288
291 291 290 291 291 291 290 289 289 288 288 287 287 287 287 289 289 288 288 288 288 287
290 290 291 290 290 289 289 288 288 287 287 287 286 286 288 288 287 287 287 286 286 287
290 290 290 290 289 288 288 288 287 287 286 286 286 285 287 288 287 286 286 286 286 285
289 289 289 289 288 287 287 287 287 286 286 286 286 285 286 287 286 286 286 286 286 285
289 288 288 286 286 286 286 286 286 286 285 285 285 285 285 286 285 285 285 286 286 286
288 287 286 286 285 287 287 285 285 285 285 285 284 285 285 285 284 283 284 285 285 287
287 286 286 286 286 286 285 285 285 285 285 285 285 284 285 285 284 283 283 283 283 284

GFSNIL_sfc_thetae_054.txt.gz
Theta_e
303 301 298 297 296 295 294 295 296 295 295 294 293 291 291 290 289 289 288 286 286 286
303 300 298 297 296 295 294 294 294 293 292 291 291 289 290 289 287 287 286 285 285 285
299 296 295 294 293 293 293 293 293 292 291 290 288 288 288 287 286 285 285 286 285 285
293 293 294 293 292 292 292 292 291 291 290 288 288 287 286 286 286 285 285 285 285 285
291 292 292 291 291 293 291 292 291 290 289 287 286 286 285 285 285 285 284 285 284 284
292 292 291 291 291 292 291 290 289 288 287 286 286 285 284 285 285 285 285 285 284 284
292 291 291 291 291 290 290 289 287 287 286 286 285 285 285 286 285 285 285 285 285 284
291 290 290 290 289 289 289 287 287 286 285 285 286 286 286 286 285 283 283 284 284 284
290 289 289 289 288 287 286 285 285 284 285 284 286 287 288 287 284 283 282 282 283 283
289 289 288 288 287 285 284 284 283 284 284 284 284 287 287 288 284 282 282 281 281 282
288 287 287 286 285 284 284 284 283 284 283 283 284 286 286 287 282 281 281 281 281 281
287 286 285 284 283 283 284 284 283 283 282 281 281 285 285 285 281 281 280 282 282 283
287 285 284 283 284 285 284 283 283 282 281 284 280 285 286 285 281 279 280 281 282 286
284 284 284 284 284 284 283 282 281 280 280 280 281 280 286 286 282 280 281 280 280 281

GFSNIL_sfc_thetae_057.txt.gz
Theta_e
306 304 301 300 300 299 299 298 295 296 296 296 296 296 293 291 290 288 287 285 285 286
302 301 300 299 298 298 296 295 295 294 294 294 293 293 291 288 287 286 286 285 285 285
300 300 298 297 296 295 295 294 293 293 293 292 291 290 289 288 286 286 286 286 284 284
297 296 295 294 294 294 294 293 292 292 291 290 288 288 287 287 286 285 285 284 285 284
293 293 293 293 294 293 292 292 291 290 289 289 287 287 286 285 285 285 284 284 284 284
292 292 290 291 292 292 291 291 291 289 288 287 287 286 285 285 285 285 285 285 284 283
291 290 291 291 291 292 292 291 288 288 287 287 286 286 286 286 285 285 285 284 284 283
291 291 291 291 291 290 290 288 287 286 286 286 286 286 285 286 285 284 283 283 283 283
291 291 290 289 289 288 287 286 286 285 285 283 286 290 290 287 284 283 282 281 282 282
290 289 289 289 287 286 285 285 284 284 283 283 285 289 288 288 283 282 281 280 280 281
289 288 287 286 285 285 285 283 282 282 283 283 286 288 287 287 281 281 280 280 280 279
287 287 286 285 285 284 283 282 283 284 283 281 283 286 286 284 281 280 279 281 281 282
287 286 285 284 284 283 284 284 284 282 281 284 280 285 286 284 281 279 279 280 280 285
286 285 284 284 284 284 283 282 280 280 279 279 280 280 286 286 281 280 279 279 279 280

GFSNIL_sfc_thetae_060.txt.gz
Theta_e
313 312 309 306 303 302 300 300 300 300 300 298 296 295 294 293 293 292 287 286 285 285
309 305 303 301 302 301 300 300 299 300 298 295 295 294 293 292 290 289 288 285 286 284
303 302 301 301 300 300 300 299 298 297 295 294 293 292 291 289 288 287 287 285 284 284
298 299 299 299 299 300 298 296 295 293 293 291 291 291 289 287 287 286 284 284 284 284
297 298 297 297 297 296 294 295 293 291 290 290 289 289 287 287 286 286 284 284 283 283
294 293 293 293 293 294 293 292 291 290 289 288 287 286 286 286 286 286 285 284 283 283
292 292 293 292 292 292 291 290 290 288 287 287 287 287 287 287 286 285 284 283 283 283
293 292 291 291 291 291 289 288 287 286 286 286 287 287 287 286 285 283 282 282 283 282
291 291 290 290 288 288 287 287 287 286 286 286 289 291 291 286 283 283 282 281 280 281
289 288 288 288 287 287 286 286 285 285 285 285 287 290 290 288 283 281 280 279 279 280
289 288 288 287 286 285 286 285 285 284 284 284 287 289 288 287 280 279 279 280 279 279
288 286 286 285 285 285 285 284 283 284 283 284 284 288 287 284 280 280 280 280 280 281
285 285 285 286 285 285 285 284 284 282 282 284 280 286 286 284 280 280 280 280 280 284
285 285 285 285 285 284 283 282 281 280 279 278 280 279 286 287 281 280 280 279 280 280

GFSNIL_sfc_thetae_063.txt.gz
Theta_e
317 315 313 310 310 310 307 304 302 302 304 302 300 297 297 294 293 291 289 288 288 287
310 309 307 305 306 305 303 302 302 302 300 299 298 295 294 292 292 289 289 287 287 287
304 303 301 302 301 300 301 301 300 300 298 296 295 293 292 290 289 288 288 288 286 286
298 298 299 300 300 300 300 299 298 298 296 293 292 291 290 289 288 287 287 286 286 285
297 298 297 297 298 299 297 297 297 295 293 292 291 290 288 287 287 286 285 285 285 284
294 296 298 298 300 298 297 294 293 292 290 289 288 287 287 286 286 286 286 286 285 284
292 295 295 294 295 294 292 291 290 289 288 287 288 288 288 287 286 286 285 285 284 283
294 292 293 291 291 290 289 288 287 287 287 287 288 288 287 287 285 284 283 283 282 283
291 291 289 288 287 287 287 287 287 287 288 289 291 292 290 286 284 283 282 281 281 280
289 288 288 288 288 287 286 287 286 286 287 288 290 291 290 287 283 281 280 280 279 280
289 288 288 287 286 286 286 286 286 286 285 285 287 290 290 287 282 280 279 279 279 279
288 287 286 285 285 285 285 285 284 285 284 285 285 289 288 284 280 281 279 280 280 281
287 286 285 285 285 285 285 284 284 283 283 286 281 287 286 285 280 279 279 280 280 284
286 285 285 285 285 284 284 283 280 279 278 278 280 280 286 287 281 280 280 280 280 280

GFSNIL_sfc_thetae_066.txt.gz
Theta_e
317 317 317 315 316 313 312 312 307 307 306 304 303 302 301 300 296 294 291 290 290 288
310 312 313 308 308 307 305 304 306 306 304 303 302 299 297 296 293 292 290 289 288 288
306 307 305 302 302 302 301 302 302 302 302 300 299 295 293 291 290 289 289 288 287 287
301 300 300 299 298 299 299 300 299 299 298 298 296 292 290 289 289 288 287 287 287 286
299 300 299 300 301 300 299 299 298 297 295 292 291 290 289 288 288 287 286 286 286 285
299 299 299 299 299 299 298 297 295 293 291 290 289 289 288 288 287 287 287 287 287 286
297 297 297 297 297 296 294 293 292 290 289 288 288 288 288 288 287 287 286 286 285 284
294 294 293 291 291 291 290 288 288 288 288 288 288 289 287 287 286 285 284 284 284 284
289 288 288 288 287 287 287 288 289 289 289 290 291 293 291 287 285 284 283 282 282 282
289 288 288 288 287 287 287 288 288 289 289 289 290 292 290 288 284 283 282 281 281 281
288 288 288 288 287 287 287 287 287 287 287 286 290 291 288 286 282 281 281 280 280 279
288 287 287 286 286 286 286 285 285 285 285 285 287 290 288 284 281 281 280 281 280 280
287 286 286 286 285 285 285 285 285 285 285 286 284 288 287 285 281 279 280 281 280 284
286 286 286 286 285 285 284 284 282 281 280 280 281 283 288 287 281 281 280 280 280 280

GFSNIL_sfc_thetae_069.txt.gz
Theta_e
315 324 324 324 323 320 318 318 319 317 315 314 312 311 309 308 307 304 301 297 294 291
308 312 321 321 321 321 318 314 313 313 312 310 310 308 306 304 301 297 294 292 291 290
307 309 314 315 315 313 310 310 310 309 308 307 305 304 303 299 295 291 290 289 288 288
306 307 308 308 306 306 305 305 305 305 304 302 299 298 294 292 291 289 288 288 288 287
303 304 304 304 303 304 302 303 301 301 299 296 293 292 290 289 289 288 287 287 287 287
301 301 301 301 301 301 300 299 298 295 292 291 290 289 289 289 288 288 288 288 287 286
298 299 299 299 298 296 294 293 291 290 290 289 289 289 289 289 288 288 287 287 286 286
294 293 293 293 292 291 290 289 289 289 289 289 290 289 288 288 287 286 285 285 285 285
289 288 288 288 288 289 289 289 291 291 290 290 291 293 292 288 286 286 285 283 283 283
289 288 288 289 289 289 289 290 291 292 292 290 291 293 292 289 285 284 283 283 283 283
288 288 288 288 288 287 288 288 288 288 289 289 291 291 289 287 284 283 283 283 283 282
288 287 287 287 286 287 286 286 285 285 285 286 287 289 288 285 283 283 282 283 283 284
287 287 286 286 285 285 286 285 287 286 287 289 287 289 288 284 284 282 283 283 283 284
287 286 286 286 286 285 285 284 284 283 284 284 284 288 288 286 284 283 283 282 282 283

GFSNIL_sfc_thetae_072.txt.gz
Theta_e
314 320 326 327 326 327 327 326 327 325 325 325 325 323 322 321 319 317 316 311 303 296
312 313 317 324 325 325 326 326 327 324 320 319 317 317 316 314 314 310 308 302 295 292
310 312 313 316 320 320 320 317 316 316 315 312 312 311 309 308 305 300 296 293 291 290
309 311 312 313 314 314 313 312 312 312 310 308 307 306 300 297 294 291 291 290 289 288
307 307 308 308 309 309 309 309 308 307 305 302 299 296 293 291 290 289 288 289 288 287
303 304 304 305 305 305 306 305 303 300 296 294 292 291 291 290 289 290 290 290 289 288
299 300 300 299 298 298 296 294 293 292 291 291 291 290 290 291 291 290 289 289 288 287
293 293 293 292 292 291 291 290 291 290 290 291 291 291 290 290 289 287 287 286 287 286
289 290 290 290 290 291 291 291 291 291 291 291 291 293 292 289 287 287 286 284 285 285
289 289 290 291 292 292 291 292 291 291 291 290 291 293 293 291 286 285 285 284 284 286
289 289 290 290 290 290 289 289 289 289 289 289 291 291 289 287 285 285 285 286 286 285
289 288 288 288 287 288 288 286 286 286 286 286 287 288 287 286 286 285 285 285 285 285
288 287 287 287 286 286 287 286 288 287 289 290 288 289 287 286 285 285 285 285 285 284
288 287 287 287 287 287 287 287 287 286 286 286 288 288 288 286 286 285 285 284 284 285

GFSNIL_sfc_thetae_075.txt.gz
Theta_e
313 314 318 327 328 329 328 326 327 326 327 327 327 327 325 323 323 321 321 319 316 309
312 312 313 318 325 327 326 325 326 325 323 324 323 323 321 319 317 316 314 304 299 295
310 311 313 314 315 319 322 321 319 319 319 317 316 315 313 311 307 302 299 297 294 293
309 311 312 312 314 315 315 314 314 314 312 311 310 309 306 304 299 297 294 294 292 290
307 308 309 310 311 311 311 311 311 310 309 306 304 300 296 295 294 292 290 290 290 289
303 304 304 305 306 307 307 306 305 303 301 297 295 293 292 291 291 290 290 290 290 290
297 297 296 296 295 295 295 294 293 293 292 292 291 291 291 291 290 290 290 290 291 290
292 293 292 292 292 292 292 292 292 291 291 292 291 291 290 289 288 288 287 287 287 288
291 291 291 292 292 292 292 292 292 291 292 292 293 294 293 290 288 287 286 284 285 287
291 291 293 293 293 292 292 292 291 291 291 290 291 293 292 290 285 284 284 284 285 285
290 290 291 290 290 290 290 289 289 289 289 289 290 292 290 288 285 285 286 286 286 285
290 289 289 288 288 288 287 286 286 286 286 286 287 289 288 287 286 286 285 285 285 285
289 288 287 288 286 286 287 287 288 288 289 289 287 288 288 287 286 285 285 285 285 285
289 288 288 288 288 288 288 288 287 287 288 289 289 288 288 287 286 285 284 283 283 284

GFSNIL_sfc_thetae_078.txt.gz
Theta_e
306 306 307 308 316 320 322 322 325 325 325 325 326 326 325 324 323 321 318 317 315 306
305 306 306 307 309 314 319 323 323 323 322 323 323 323 322 320 319 318 316 306 301 297
304 305 306 306 307 309 313 315 316 317 318 317 316 315 314 311 306 302 299 298 297 295
303 305 306 306 307 307 308 310 311 312 311 310 309 308 306 302 300 298 296 295 294 292
304 304 303 304 305 307 308 309 309 308 305 303 299 298 297 296 295 293 291 291 290 290
297 297 297 297 296 297 297 297 296 295 294 292 292 292 292 292 291 290 290 290 290 290
293 293 293 292 292 292 293 292 292 292 292 292 291 291 291 291 290 290 290 290 290 290
292 292 292 292 292 292 292 292 292 291 291 291 291 291 290 289 289 288 287 287 288 288
291 292 292 292 292 292 292 292 292 292 292 292 292 294 293 289 287 286 285 285 285 286
292 292 292 292 292 291 290 291 290 290 290 290 291 294 293 290 284 284 284 285 285 286
291 290 291 290 289 289 289 288 288 288 289 290 291 293 291 289 284 285 284 283 283 284
290 289 289 288 287 287 287 286 286 286 284 284 287 290 289 286 283 282 281 282 283 283
289 288 287 287 286 286 287 287 287 287 284 288 283 289 289 286 283 281 281 281 282 286
288 288 288 288 288 287 287 286 284 283 284 284 284 285 289 289 283 281 280 279 279 280

GFSNIL_sfc_thetae_081.txt.gz
Theta_e
303 304 304 305 307 313 318 320 326 325 327 327 326 326 326 324 324 322 320 318 316 311
303 303 303 304 305 307 314 319 322 323 323 323 323 323 322 320 319 319 316 314 310 303
302 303 304 304 306 308 309 310 312 314 316 316 315 315 315 310 307 304 300 299 297 296
301 302 303 303 304 305 306 307 308 308 307 308 306 307 304 302 300 297 296 295 293 292
299 298 298 296 297 302 301 303 302 300 297 297 296 297 297 296 295 294 292 292 292 291
295 294 293 293 294 295 295 294 294 294 293 292 293 293 293 292 292 292 291 291 291 290
292 292 292 292 293 293 293 292 292 292 292 292 292 292 292 291 291 290 290 290 290 290
292 292 292 292 292 292 292 292 292 291 291 291 291 291 290 290 289 288 287 288 289 289
292 292 292 292 292 292 292 292 293 292 292 291 292 294 293 288 286 285 285 285 285 287
292 292 292 292 291 291 290 291 290 290 291 291 292 294 293 290 284 283 284 284 285 286
291 291 291 290 289 289 289 289 289 289 291 291 292 293 292 289 284 283 282 282 282 282
290 289 289 288 287 287 287 286 285 285 283 283 285 290 289 285 282 281 280 281 282 282
289 288 287 287 286 286 287 286 284 283 283 288 284 290 289 284 281 280 280 280 281 287
288 288 288 288 288 287 287 284 282 281 282 282 283 285 290 288 281 280 278 279 279 280

GFSNIL_sfc_thetae_084.txt.gz
Theta_e
303 304 304 305 306 310 316 319 322 322 323 323 327 327 326 324 323 322 321 319 318 314
302 302 302 303 304 306 312 317 318 320 321 322 324 324 322 320 319 318 313 311 309 304
301 302 302 304 305 306 308 309 311 313 314 313 315 316 316 310 307 304 300 299 297 296
299 300 299 301 302 303 304 305 305 305 304 304 304 306 303 301 300 297 296 296 295 294
295 294 293 293 295 298 299 298 297 296 294 294 295 296 297 297 296 295 293 293 293 292
292 292 293 293 293 294 294 293 293 292 292 293 294 294 294 294 293 292 292 292 291 291
290 290 292 293 293 293 293 293 293 293 293 293 293 293 292 292 291 291 291 291 290 290
292 292 292 292 292 293 293 292 292 292 292 292 292 291 290 290 289 288 288 289 289 290
292 292 292 292 292 292 292 292 292 292 292 291 292 294 293 287 286 287 286 286 286 289
292 292 292 292 291 291 290 291 291 291 291 291 291 294 293 290 283 284 284 285 285 285
291 291 291 290 289 289 289 289 290 290 291 292 293 294 292 289 282 281 282 281 281 280
291 289 289 288 287 288 288 287 286 287 286 285 287 291 289 284 281 280 280 281 280 280
290 288 287 287 286 286 284 284 283 282 283 288 284 290 288 283 280 279 280 280 281 287
289 288 288 287 287 286 283 282 281 280 281 281 283 285 289 287 281 280 278 278 279 280

GFSNIL_sfc_thetae_087.txt.gz
Theta_e
302 302 302 303 304 308 313 316 320 322 322 323 323 323 323 322 323 321 320 319 316 316
302 302 302 303 303 305 309 315 316 317 319 320 321 321 321 318 318 315 309 306 307 306
300 301 303 304 305 306 307 308 310 313 315 315 315 315 314 309 307 304 301 300 300 298
298 298 299 300 301 303 304 305 305 304 304 305 305 306 304 302 301 299 296 297 296 295
294 294 293 293 296 299 297 296 296 295 295 296 297 298 299 298 296 294 295 294 294 293
291 291 291 291 292 293 292 292 292 292 292 293 293 293 293 293 293 294 293 293 292 292
290 290 290 292 293 294 294 293 293 293 293 293 293 293 293 292 292 291 291 291 291 290
291 291 291 293 293 293 293 292 292 292 292 292 292 292 291 291 290 289 289 288 288 288
291 292 292 292 293 293 292 292 292 292 292 292 293 295 293 290 288 288 287 286 287 288
291 291 292 292 291 291 291 291 291 291 291 290 291 294 293 290 286 285 285 285 285 284
292 291 291 290 290 290 290 290 290 291 291 292 292 293 292 289 282 282 281 281 280 280
291 290 289 288 288 288 288 287 287 287 288 288 290 292 290 284 281 281 280 281 280 280
290 289 288 287 286 286 287 286 286 285 284 288 285 289 288 283 281 279 280 280 281 287
289 288 288 287 287 286 285 284 282 281 281 282 284 285 288 287 281 280 278 279 279 280

GFSNIL_sfc_thetae_090.txt.gz
Theta_e
303 304 304 304 304 308 312 315 318 320 322 323 323 322 321 319 318 317 317 319 318 317
301 301 301 302 303 304 306 312 314 314 316 318 320 321 320 320 320 316 313 310 309 308
299 300 301 302 303 304 305 307 309 315 316 315 316 318 316 311 309 305 302 303 302 300
297 297 297 299 300 301 302 303 303 305 306 307 307 308 306 305 303 300 298 297 297 296
294 294 294 294 296 297 296 295 296 296 297 297 299 301 302 300 299 298 296 295 295 293
292 292 292 291 292 293 292 292 293 293 294 294 294 294 294 294 294 294 293 292 292 293
290 290 290 291 292 292 292 292 293 294 293 293 293 292 292 292 292 291 291 292 292 291
290 291 291 291 292 293 293 293 293 293 293 293 293 293 292 291 291 290 289 289 289 289
290 291 291 291 291 292 292 292 293 292 293 293 294 295 294 291 289 289 288 287 287 289
290 290 290 291 292 291 291 291 291 291 292 292 293 295 294 291 286 286 286 286 285 284
290 290 291 291 290 290 291 290 290 291 291 291 292 293 291 290 286 285 283 281 280 280
291 290 290 289 288 289 289 288 287 288 289 290 291 292 291 284 281 281 280 280 280 281
291 290 288 288 287 287 288 287 287 286 287 290 286 290 289 284 281 280 280 281 282 287
290 289 289 288 287 287 286 285 284 284 283 283 284 285 288 286 281 280 279 279 279 280

GFSNIL_sfc_thetae_093.txt.gz
Theta_e
314 318 318 316 317 318 319 320 321 323 327 328 329 328 326 324 323 322 322 321 321 321
306 307 307 307 308 309 310 314 318 319 321 322 325 326 326 325 324 323 324 323 320 316
305 305 307 307 308 309 311 312 314 317 318 319 319 322 323 319 316 314 309 308 308 306
301 302 303 305 306 307 307 308 309 310 311 311 312 313 311 308 306 305 304 303 303 302
299 299 300 300 301 302 301 300 301 303 303 303 304 307 307 305 304 301 302 299 299 297
296 297 296 297 297 297 298 297 298 299 299 299 299 300 301 300 299 299 298 298 297 297
294 295 295 295 295 296 296 296 297 297 297 297 297 297 297 297 296 295 295 295 295 295
293 294 294 294 294 295 295 295 295 295 295 296 296 295 295 294 294 293 292 292 292 292
293 293 293 294 294 294 294 294 294 294 295 295 295 296 295 293 292 291 290 288 289 293
292 292 293 293 293 293 293 293 293 293 294 294 295 296 295 293 287 287 287 287 288 287
292 292 292 293 292 292 292 292 292 292 292 293 294 295 294 292 289 288 286 285 285 285
292 291 291 291 290 290 291 290 289 290 291 291 291 293 292 288 286 284 283 284 285 286
292 291 290 290 288 288 289 289 289 288 290 292 290 292 289 285 284 282 283 285 287 288
292 291 291 289 289 289 288 287 287 286 286 286 288 289 289 287 284 283 283 284 284 285

GFSNIL_sfc_thetae_096.txt.gz
Theta_e
333 333 332 333 330 330 329 330 330 332 333 333 332 331 332 331 330 329 327 327 327 326
318 319 319 318 319 319 318 319 321 323 325 326 328 329 329 328 328 327 327 327 327 325
312 312 312 312 312 313 315 316 318 319 320 321 322 324 324 326 326 326 321 320 322 315
309 310 311 311 312 313 313 314 315 315 316 317 317 319 319 319 316 315 310 309 309 308
307 308 308 308 309 310 309 309 310 311 311 311 312 313 313 311 308 306 305 304 306 303
305 306 306 306 306 306 307 307 307 308 308 307 307 307 308 307 304 303 303 304 301 302
303 303 303 303 304 304 304 304 304 305 304 304 305 305 305 302 301 300 299 300 302 300
301 301 302 301 301 301 301 301 301 301 301 302 302 301 301 302 302 301 298 298 297 297
299 300 300 300 300 300 300 300 300 300 299 300 298 296 297 298 296 295 295 293 294 295
298 298 299 299 299 299 299 299 298 298 297 297 298 297 297 295 289 288 288 289 291 291
298 298 298 298 298 298 297 296 295 295 295 295 296 296 295 293 291 290 290 290 290 290
298 297 297 297 296 295 294 293 292 293 293 293 293 295 294 291 290 288 288 288 289 289
297 295 295 295 293 292 293 291 292 291 292 293 291 293 292 291 289 287 286 288 289 289
295 294 295 295 294 293 291 290 290 289 290 290 291 291 290 288 287 286 286 286 287 288

GFSNIL_sfc_thetae_099.txt.gz
Theta_e
331 328 326 326 326 327 327 328 331 331 330 330 330 330 330 329 329 328 328 327 326 327
331 330 329 323 325 326 327 325 329 330 332 332 332 332 329 328 327 328 327 327 327 326
317 317 318 317 316 315 316 317 319 320 322 323 324 325 326 326 326 326 325 323 323 320
314 314 313 313 313 314 314 315 315 316 317 317 318 319 319 319 320 320 318 312 317 312
310 311 311 310 311 311 310 311 311 312 312 313 313 314 315 314 310 310 308 307 308 304
308 309 308 308 309 309 309 308 308 309 309 309 309 309 310 309 307 306 305 304 303 303
307 307 307 307 306 306 307 307 307 307 306 306 307 307 307 305 304 302 301 301 302 302
304 304 304 304 304 304 304 304 304 304 303 304 304 303 304 305 303 300 299 298 298 298
303 303 303 303 302 303 302 302 302 302 301 301 300 297 298 300 299 298 296 294 294 295
302 301 301 301 301 301 301 301 301 300 300 300 299 297 297 296 290 288 288 290 292 292
301 301 301 300 300 300 300 299 298 298 297 297 297 297 296 294 292 292 291 291 290 291
301 300 300 299 299 298 297 296 294 295 294 294 294 295 295 292 290 288 287 288 289 289
300 299 298 299 296 294 295 293 293 292 293 293 292 295 293 291 288 286 286 288 288 290
298 298 298 297 296 295 294 292 292 291 291 291 291 292 293 292 288 287 286 287 286 287

GFSNIL_sfc_thetae_102.txt.gz
Theta_e
322 321 321 321 321 321 324 326 328 328 328 327 327 327 328 327 327 327 325 325 325 325
322 322 322 322 322 322 322 324 327 327 327 328 328 328 328 326 325 325 326 325 325 325
317 320 319 318 315 316 315 317 321 322 323 323 323 323 324 324 324 324 323 322 322 322
313 313 312 312 313 313 313 314 315 315 316 316 316 315 314 314 313 313 314 315 316 317
308 308 308 308 309 309 307 308 309 310 310 310 310 310 310 310 309 308 309 309 309 308
304 305 304 305 305 306 305 305 306 307 307 307 307 306 306 306 305 306 305 305 305 304
303 302 302 302 303 302 304 303 303 303 303 303 304 304 304 303 303 302 301 302 302 302
300 300 300 300 300 300 299 300 301 300 300 300 300 299 298 301 299 298 297 298 297 297
299 299 300 299 299 298 298 298 298 298 298 297 298 299 299 299 295 295 295 293 293 295
299 299 298 298 298 297 297 297 296 296 296 295 295 298 298 297 290 288 288 290 292 292
298 297 297 297 296 295 294 294 293 293 293 294 295 298 297 295 291 291 291 291 291 291
297 296 296 295 294 293 292 291 291 292 292 290 294 296 296 292 289 288 287 289 290 289
297 296 294 294 291 292 293 292 292 291 288 292 290 296 294 291 288 285 285 286 288 291
295 294 294 292 291 290 292 292 291 289 288 288 289 293 294 293 288 286 285 285 285 286

GFSNIL_sfc_thetae_105.txt.gz
Theta_e
320 319 319 320 319 320 321 324 327 327 327 327 327 326 326 326 325 325 324 324 325 325
317 318 318 319 319 320 321 323 325 325 325 327 326 326 326 325 325 325 325 325 324 323
319 318 319 319 319 319 320 321 323 324 324 324 325 325 324 323 324 324 322 322 321 320
315 315 315 315 313 314 314 316 318 320 319 318 317 315 315 315 314 314 313 314 315 316
310 309 310 309 310 312 311 312 311 311 311 310 311 310 310 310 309 308 307 308 308 310
305 305 305 306 306 306 306 305 306 307 307 307 306 305 305 306 305 305 304 304 305 306
301 301 302 303 303 304 303 302 302 303 303 303 302 303 302 302 301 301 301 302 303 304
299 299 299 300 300 300 300 300 300 299 299 299 299 298 297 299 298 297 298 298 298 297
298 298 297 297 297 298 298 297 298 297 297 296 297 299 299 298 295 294 293 292 292 295
297 297 297 297 297 296 295 296 294 295 295 294 293 298 298 296 290 288 288 291 292 293
297 296 296 296 295 294 293 293 292 292 292 292 294 298 297 296 291 291 292 292 292 291
296 295 295 294 292 292 291 290 289 290 291 289 293 297 296 292 289 289 289 290 290 291
295 295 293 292 291 290 290 290 292 292 288 291 290 296 296 292 288 286 287 287 290 292
294 293 293 291 290 291 291 292 291 290 289 289 289 293 295 293 287 287 286 285 286 288

GFSNIL_sfc_thetae_108.txt.gz
Theta_e
320 321 320 320 321 322 322 322 323 324 324 325 325 325 325 325 324 324 323 323 323 323
317 317 316 316 317 317 318 320 322 323 322 324 324 324 324 323 323 323 323 323 324 324
315 315 316 316 316 316 317 318 319 322 323 322 323 324 323 322 323 322 322 323 323 323
314 315 315 316 316 317 317 318 319 321 320 320 320 319 318 316 316 317 315 315 315 315
311 313 313 314 312 312 312 313 314 315 313 312 311 310 311 310 310 310 309 308 307 307
307 307 307 308 307 307 306 307 308 308 308 307 307 306 305 304 304 303 302 302 302 304
302 303 303 303 303 303 302 302 302 303 303 302 302 303 302 301 300 300 299 300 300 302
300 300 300 299 299 300 300 299 299 299 298 299 299 298 297 299 298 297 296 296 297 298
298 298 297 297 296 297 296 296 297 296 296 295 297 300 300 298 294 294 294 293 292 293
297 296 296 296 296 295 294 294 294 294 294 294 293 299 299 296 291 287 287 288 291 294
296 296 295 295 294 293 292 292 291 291 291 291 293 298 298 296 292 292 291 290 291 292
296 294 294 293 292 291 291 289 289 290 289 289 290 297 297 293 290 289 289 290 291 291
295 294 293 292 290 289 289 290 290 289 288 290 288 295 296 293 287 285 286 288 290 293
294 293 292 291 289 289 289 289 290 290 291 287 289 292 297 295 287 286 285 285 286 288

GFSNIL_sfc_thetae_111.txt.gz
Theta_e
325 325 325 324 324 322 322 323 325 325 325 326 325 324 325 325 324 323 322 322 323 323
319 319 319 318 318 319 319 320 321 322 321 323 322 322 321 321 321 322 321 321 321 321
316 316 316 316 316 316 317 317 318 319 320 320 320 321 320 319 320 320 320 320 320 320
313 314 314 314 314 314 316 318 317 320 320 318 318 320 318 318 317 317 315 314 313 313
313 313 312 312 311 312 313 314 314 316 317 315 313 310 310 309 309 310 308 308 309 306
309 310 309 308 309 308 309 307 307 308 307 306 306 306 306 306 305 305 302 300 300 300
304 304 305 306 305 303 303 303 302 303 302 302 301 301 301 300 299 300 298 298 298 299
300 300 300 300 299 299 299 299 299 298 298 297 297 297 296 296 296 295 295 295 295 295
298 298 297 297 297 297 296 296 296 295 295 294 297 301 301 295 292 291 291 291 291 292
297 296 296 296 295 294 293 293 293 293 293 292 293 300 299 296 291 289 289 290 289 291
296 295 294 294 294 292 291 291 291 291 291 291 293 298 298 297 292 292 292 292 291 291
295 294 293 292 291 290 291 290 289 289 289 289 289 297 297 294 290 287 288 289 290 291
294 293 292 292 290 290 289 289 289 289 287 290 288 294 296 294 288 285 285 286 287 293
293 293 292 291 290 289 289 289 287 289 291 290 287 288 295 297 290 288 286 284 284 287

GFSNIL_sfc_thetae_114.txt.gz
Theta_e
326 326 327 326 327 329 328 329 330 329 330 329 328 328 327 326 325 324 322 322 322 322
328 328 326 327 327 326 323 323 325 325 325 325 323 323 323 320 319 319 319 320 320 320
321 321 320 320 319 318 318 319 320 320 320 320 319 320 319 317 317 317 318 319 319 319
317 316 316 316 315 316 316 316 315 316 317 317 316 317 318 317 318 317 315 313 311 310
314 314 314 313 313 314 313 313 314 315 316 316 313 314 315 311 309 309 309 307 306 304
311 311 310 310 310 310 310 309 310 309 307 307 308 308 307 307 306 304 302 300 300 299
306 306 306 305 305 305 305 304 303 303 302 302 302 302 301 300 298 298 297 297 297 296
302 301 301 301 300 300 300 300 299 298 297 297 297 297 296 296 295 294 294 293 293 293
300 299 298 298 297 297 296 296 296 295 294 294 297 301 299 295 293 293 293 292 290 291
297 296 296 296 295 294 293 293 292 292 293 292 294 300 298 295 291 289 290 291 288 290
295 296 295 294 293 292 291 291 291 290 291 291 294 299 298 295 291 292 292 291 290 289
294 293 292 292 291 290 290 289 289 289 289 289 289 298 297 292 287 287 286 288 288 288
293 293 291 291 289 289 289 289 289 288 287 292 287 294 297 294 287 285 285 287 288 293
293 292 292 290 289 289 289 288 288 288 289 291 288 288 295 297 289 289 288 287 287 287

GFSNIL_sfc_thetae_117.txt.gz
Theta_e
323 323 323 326 326 326 326 327 329 329 329 329 329 329 329 328 328 326 324 322 322 322
324 324 325 325 326 326 327 326 329 330 329 330 329 328 327 325 326 325 324 324 324 324
325 326 325 326 324 322 324 325 326 327 327 324 324 324 324 323 323 323 323 322 321 319
321 321 322 323 322 321 321 323 323 323 323 322 322 322 321 320 321 319 317 315 314 311
318 318 318 317 317 318 317 318 318 319 319 320 320 321 320 315 315 315 311 308 307 305
315 315 315 314 314 315 314 314 316 317 316 314 313 314 314 313 309 308 306 304 305 304
312 312 311 311 310 311 311 310 309 309 308 308 308 307 306 305 304 303 302 302 301 301
308 308 306 305 305 305 306 305 304 302 302 302 302 301 302 301 301 300 299 298 298 298
304 303 303 302 301 302 301 301 300 299 299 299 300 300 300 298 297 296 296 295 295 296
301 300 300 300 299 298 298 298 297 297 298 298 299 299 298 297 294 291 292 294 294 295
299 298 298 297 297 296 296 296 296 295 296 297 298 299 297 296 295 295 295 295 294 294
297 296 296 295 295 294 294 294 293 293 293 295 297 299 297 294 292 291 292 292 293 293
296 295 295 294 293 293 293 292 292 291 292 293 293 298 298 295 292 291 291 291 292 293
295 295 294 293 293 293 292 292 292 291 292 293 292 293 297 297 293 292 291 290 290 290